Find Starlink 2380

NORAD ID: 47799 Int'l Des: 2021-018 Owner: SPXS Country: US Constellation: starlink operational
LEOCIRCULARSTARLINK_TYPE

現在のビュー

3D地球を読み込み中...

About Starlink 2380

Starlink 2380 (NORAD 47799) is a starlink constellation satellite (v1.0) launched Mar 11, 2021 by SPXS of US. It operates in LEO, CIRCULAR, STARLINK_TYPE orbit with a mass of 260.00 kg.

次回通過

Passes for default location (London). Set your location on the main map for personalized predictions.

高度履歴

Loading altitude history...

軌道要素

1 47799U 21018N 26265.67637884 .00000420 00000-0 25312-4 0 9991
2 47799 53.1618 35.4020 0001313 73.9405 286.1741 15.31692914307046
Epoch: Sep 22, 2026 • Age: 14 hours

現在のステータス

高度 474.4 km
遠地点 / 近地点 N/A
速度 7.63 km/s
衛星直下点 44.26°N, 21.81°W
打ち上げ日 Mar 11, 2021
運用期間 5.5 years
タイプ internet

技術仕様

分類 Payload
質量 260.00 kg
乾燥質量 248.00 kg
長さ 0.20 m
スパン 9.00 m
形状 ? Box + pan
製造者 SPXS
バスタイプ Starlink
フェーズステータス In Orbit
所有者/国 SPXS/US

Most Searched